Simultaneous Nadir Overpasses (SNOs) Predictions

Prediction of SNOs between GOES-15 and TERRA Satellite Orbit:

Table of predicted SNOs for the next 14.0 days since TLE Epoch: 6/24/2023
Index Date Time (GOES-15) GOES-15 Lat,Lon TERRA Lat,Lon Distance(km) Time Diff (sec)
1 06/24/2023 09:11:49 0.17,-164.78 -0.16,-166.28 171.43 80
2 06/26/2023 08:52:50 0.20,-165.54 0.84,-162.36 360.68 80
3 06/26/2023 21:15:41 -0.16,-165.76 0.16,-167.27 172.51 80
4 06/28/2023 20:56:42 -0.18,-166.51 -0.86,-163.36 358.87 80
5 06/29/2023 09:19:41 0.14,-166.69 -0.18,-168.30 182.13 80
6 07/01/2023 09:00:42 0.17,-167.44 0.81,-164.38 347.96 80
7 07/01/2023 21:23:31 -0.13,-167.65 0.25,-169.27 185.96 80
8 07/03/2023 21:04:31 -0.16,-168.38 -0.76,-165.36 342.92 80
9 07/04/2023 09:27:31 0.12,-168.55 -0.25,-170.30 198.41 80
10 07/06/2023 09:08:30 0.15,-169.28 0.73,-166.37 329.82 80
11 07/06/2023 21:31:21 -0.11,-169.48 0.27,-171.28 204.51 80
